Showing default

HORIZON GORIZONT, 61757

Orbit data source: Space-Track

HORIZON GORIZONT, 61757 is a payload satellite owned by BGTU (CIS) in SSO that was launched on Mon, 04 Nov 2024 UTC via a SOYUZ-2-1B launch vehicle from the Vostochny Cosmodrome (VOSTO). Payload-class satellites include a variety of spacecraft equipped with specific instruments for various scientific and technological missions. These include communications satellites like Starlink; space stations such as the ISS; scientific satellites like the Hubble; Earth observation satellites from companies like Planet Labs, Umbra, and HawkEye 360; GPS; miniature CubeSats for education and research; and military/defense satellites.

Loading next visibility...
Identifier
61757, 2024-199Y
Orbit
SSO
Country
Flag of CISCIS
Related business
Manufacturer
Geoskan
Mission
Operational Amateur Technology
Bus & Motor
CUBESAT 3U, Unknown motor
Mass
3 kg wet, 3 kg dry
Launch date (UTC)
2024-11-04 (1 year ago)
Launch vehicle
SOYUZ-2-1B
Launch site
Vostochny Cosmodrome (VOSTO)
Object type
Payload
Rocket body
Debris
Shape & HBR
Box, 0.1 m
Radar Cross Section
0.035 m², Small (<0.1 m²)

Expand to show TLE details & history
Last TLE update: 17 hours ago

TLE from 17 hours ago
0 HORIZON GORIZONT
1 61757U 24199Y   25296.91151141  .00053174  00000-0  10471-2 0  9993
2 61757  97.3289 167.1437 0011001  54.5522 305.6753 15.47002278101143
Epoch: 2025-10-23T21:52Z
TLE epoch observation values (Epoch: 2025-10-23T21:52:34.585Z)
Latitude
-0.00007°
Longitude
166.43563°
Altitude
424.27 km
Speed
7.659 km/s
True Right ascension
11h 08m 34s
True Declination
0° 00' 00"
Sunlit
Object was in daylight at epoch
Visualization orbit readout
Latitude
Unknown
Longitude
Unknown
Altitude
Unknown
Speed
Unknown
Apparent Right ascension
Unknown
Apparent Declination
Unknown
Sunlit
N/A
Visualization observer readout
Local Sidereal Time
10:07:27
Azimuth
Unknown
Elevation
Unknown
Doppler factor
Unknown
Orbital elements
Apogee altitude
429.909 km
Perigee altitude
414.946 km
Semi-major axis
6,800.565 km
Eccentricity
0.0011
Inclination
97.3289°
RAAN
167.1437°
Arg. of periapsis
54.5522°
True anomaly
305.57281°
Mean anomaly
305.6753°
Eccentric anomaly
305.62406°
Mean motion
3.87013 °/min
Orbital period
93.02 mins
BSTAR
0.0010471
Loading maneuver chart data...
Computing Atmospheric mass density...
Loading historical data...
Loading historical data...
Loading historical data...
Loading historical data...
Loading historical data...
Loading historical data...
Loading historical data...

Documentation

Showing up to 5 results
|